Find Starlink 34710

NORAD ID: 65365 Int'l Des: 2025-190 Owner: SPXS Country: US Constellation: starlink operational
LEOCIRCULAR

当前视图

正在加载3D地球...

关于 Starlink 34710

正在加载描述...

即将过境

Passes for default location (London). Set your location on the main map for personalized predictions.

高度历史

Loading altitude history...

两行轨道根数

1 65365U 25190Q 26150.02695758 .00031790 00000-0 10803-2 0 9992
2 65365 53.1557 150.7029 0001251 100.2641 259.8501 15.30217173 41735
Epoch: May 30, 2026 • Age: 8 hours

当前状态

高度 475.8 km
速度 7.63 km/s
星下点 27.92°N, 78.78°W
发射日期 Aug 28, 2025
运行时间 0.7 years
类型 internet

技术详情

分类 Payload
质量 575.00 kg
干质量 530.00 kg
总质量 575.00 kg
长度 0.30 m
直径 4.10 m
跨度 29.00 m
形状 Box + pan
制造商 SPXS
平台类型 Starlink V2MO
阶段状态 In Orbit
所有者/国家 SPXS/US

Most Searched